GW4864 Weather Reports


time (UTC)temp
C
wind
direction
speed
KPH
gust
KPH
rain 1hr
cm
rain 24hr
cm
rain mn
cm
humidity
%
barometer
mb
20260507220040 12 67 1.6 4.8 0.00 0.20 0.20 78 1010.1
20260507214546 12 0 0.0 3.2 0.00 0.20 0.20 80 1010.1
20260507213045 12 148 0.0 6.4 0.00 0.20 0.20 77 1010.1
20260507211552 12 73 1.6 6.4 0.00 0.20 0.20 79 1010.2
20260507210045 12 95 0.0 4.8 0.00 0.20 0.20 80 1010.3
20260507204542 12 105 1.6 4.8 0.00 0.20 0.20 76 1010.2
20260507203050 12 116 3.2 9.7 0.00 0.20 0.20 77 1010.0
20260507201550 11 0 0.0 6.4 0.00 0.20 0.20 82 1010.7
20260507200043 11 118 1.6 9.7 0.03 0.20 0.20 79 1010.8
20260507194548 11 139 3.2 9.7 0.05 0.20 0.20 84 1010.7
20260507193045 11 138 3.2 6.4 0.10 0.20 0.20 85 1011.0
20260507191547 11 0 0.0 8.0 0.10 0.20 0.20 86 1011.3
20260507190046 11 115 3.2 9.7 0.08 0.18 0.18 86 1011.1
20260507184548 11 0 0.0 9.7 0.05 0.15 0.15 86 1011.4
20260507183051 11 158 1.6 6.4 0.00 0.10 0.10 76 1011.1
20260507181551 12 132 4.8 14.5 0.00 0.10 0.10 71 1011.1
20260507180050 12 166 1.6 6.4 0.00 0.10 0.10 79 1011.3
20260507174542 12 0 0.0 3.2 0.00 0.10 0.10 79 1011.4
20260507173059 12 0 1.6 4.8 0.00 0.10 0.10 76 1011.7
20260507171549 12 330 1.6 6.4 0.00 0.10 0.10 75 1011.5
20260507170050 12 196 0.0 4.8 0.00 0.10 0.10 75 1011.8
20260507164542 13 151 1.6 6.4 0.00 0.10 0.10 79 1011.7
20260507163043 13 158 0.0 11.3 0.00 0.10 0.10 79 1011.9
20260507161550 12 157 3.2 6.4 0.00 0.10 0.10 80 1012.0
20260507160044 12 0 0.0 6.4 0.00 0.10 0.10 82 1012.2
20260507154546 12 0 0.0 3.2 0.00 0.10 0.10 85 1012.4
20260507153045 12 0 0.0 3.2 0.00 0.10 0.10 86 1012.4
20260507151542 12 0 0.0 3.2 0.00 0.10 0.10 86 1012.5
20260507150039 12 0 0.0 9.7 0.00 0.10 0.10 87 1012.3
20260507144546 12 278 0.0 4.8 0.03 0.13 0.10 90 1012.2
20260507143056 11 0 0.0 6.4 0.03 0.13 0.10 90 1012.7
20260507141542 11 0 0.0 4.8 0.03 0.13 0.10 90 1012.6
20260507140053 11 0 0.0 3.2 0.05 0.13 0.10 90 1012.9
20260507134541 12 155 0.0 4.8 0.03 0.15 0.08 89 1012.7
20260507133047 12 222 0.0 4.8 0.03 0.15 0.08 89 1012.6
20260507131548 12 0 0.0 1.6 0.03 0.15 0.08 88 1012.6
20260507130058 12 0 0.0 4.8 0.00 0.13 0.05 89 1012.8
20260507124541 11 0 0.0 3.2 0.00 0.13 0.05 89 1012.7
20260507123043 11 0 0.0 3.2 0.00 0.13 0.05 89 1012.5
20260507121544 12 0 0.0 4.8 0.00 0.13 0.05 89 1012.4
20260507120052 12 0 0.0 4.8 0.00 0.13 0.05 88 1012.4
20260507114546 12 0 0.0 3.2 0.00 0.13 0.05 88 1012.3
20260507113046 12 159 0.0 3.2 0.00 0.13 0.05 88 1012.1
20260507111544 12 0 0.0 4.8 0.00 0.13 0.05 88 1012.1
20260507110055 12 231 0.0 4.8 0.00 0.13 0.05 88 1011.3
20260507104549 12 0 0.0 3.2 0.00 0.13 0.05 88 1011.3
20260507103115 12 117 1.6 8.0 0.00 0.13 0.05 89 1011.3
20260507101540 12 0 1.6 4.8 0.00 0.13 0.05 90 1011.2
20260507100057 12 0 1.6 17.7 0.00 0.13 0.05 90 1011.4
20260507094542 13 0 0.0 9.7 0.00 0.13 0.05 91 1010.7
20260507093043 13 244 0.0 3.2 0.00 0.13 0.05 92 1010.7
20260507091544 13 0 1.6 12.9 0.00 0.13 0.05 92 1011.1
20260507090039 13 0 1.6 11.3 0.00 0.13 0.05 92 1010.9
20260507084547 13 0 0.0 6.4 0.00 0.13 0.05 92 1010.5
20260507083045 13 0 0.0 3.2 0.00 0.13 0.05 93 1010.7
20260507081540 13 207 0.0 9.7 0.00 0.13 0.05 93 1010.6
20260507080045 15 158 1.6 6.4 0.00 0.13 0.05 93 1010.3
20260507074538 17 131 1.6 6.4 0.00 0.13 0.05 94 1010.3
20260507073043 17 248 0.0 3.2 0.00 0.13 0.05 94 1009.8
20260507071545 17 0 0.0 1.6 0.00 0.13 0.05 94 1009.4
20260507070100 17 0 0.0 0.0 0.03 0.13 0.05 94 1009.3
20260507064548 17 304 0.0 4.8 0.03 0.13 0.05 94 1008.9
20260507063048 17 295 0.0 4.8 0.03 0.13 0.05 94 1009.4
20260507061545 17 242 0.0 4.8 0.03 0.13 0.05 94 1009.5
20260507060053 17 298 0.0 3.2 0.00 0.10 0.03 94 1009.6
20260507054613 17 326 0.0 3.2 0.00 0.10 0.03 94 1009.2
20260507053102 17 62 0.0 3.2 0.00 0.10 0.03 93 1008.3
20260507051555 17 0 0.0 1.6 0.03 0.10 0.03 93 1008.6
20260507050054 17 0 0.0 4.8 0.03 0.10 0.03 92 1008.7
20260507044555 17 0 0.0 4.8 0.03 0.10 0.03 92 1009.0
20260507043045 17 54 0.0 6.4 0.03 0.10 0.03 91 1009.5
20260507041555 17 333 0.0 4.8 0.00 0.08 0.00 91 1009.7
20260507040051 17 25 0.0 3.2 0.00 0.08 0.00 90 1010.1
20260507034544 17 0 0.0 3.2 0.00 0.08 0.08 90 1009.8
20260507033043 17 0 0.0 0.0 0.00 0.08 0.08 90 1010.2
20260507031547 17 0 0.0 1.6 0.00 0.08 0.08 89 1010.4
20260507030043 17 0 0.0 1.6 0.00 0.08 0.08 89 1010.0
20260507024541 17 0 0.0 1.6 0.00 0.08 0.08 88 1010.2
20260507023041 18 0 0.0 3.2 0.00 0.08 0.08 86 1009.9
20260507021541 18 57 0.0 3.2 0.00 0.08 0.08 86 1008.9
20260507020059 17 49 0.0 3.2 0.00 0.08 0.08 88 1008.8
20260507014552 17 0 0.0 1.6 0.00 0.08 0.08 87 1009.6
20260507013047 17 0 0.0 1.6 0.00 0.08 0.08 86 1009.5
20260507011557 18 0 0.0 1.6 0.00 0.08 0.08 85 1009.5
20260507010046 18 0 0.0 3.2 0.00 0.08 0.08 84 1009.7
20260507004539 18 0 0.0 4.8 0.00 0.08 0.08 82 1009.5
20260507003043 19 338 0.0 3.2 0.00 0.08 0.08 82 1009.4
20260507001558 19 331 0.0 6.4 0.00 0.08 0.08 81 1009.5
20260507000054 20 20 1.6 4.8 0.00 0.08 0.08 80 1009.4
20260506234554 20 336 1.6 4.8 0.00 0.08 0.08 79 1009.4
20260506233048 20 317 1.6 9.7 0.00 0.08 0.08 78 1009.4
20260506231544 20 319 1.6 9.7 0.00 0.08 0.08 76 1009.4
20260506230052 21 306 1.6 12.9 0.00 0.08 0.08 75 1009.2
20260506224540 21 298 4.8 14.5 0.00 0.08 0.08 74 1009.2
20260506223042 21 317 4.8 12.9 0.00 0.08 0.08 73 1009.2
20260506221556 21 239 3.2 16.1 0.00 0.08 0.08 74 1009.3